CAPE
0 0 0 0 0 0 0 0 0 0 0 0 0 0 0 30 0 9 26 26 30 28 10 0 0 0 0 0 0 0 0 46 57 41 0 0 11 52 60 213 828 840 1276 1817
0 0 0 0 0 0 0 0 0 0 0 0 0 0 0 10 3 8 14 44 45 29 17 0 0 0 0 0 0 0 0 37 64 34 62 52 61 60 62 74 543 692 842 2155
0 0 0 0 0 0 0 0 0 0 0 0 0 11 48 0 3 5 21 38 47 37 2 0 0 0 0 0 0 0 4 36 94 106 111 123 222 295 93 140 130 264 440 736
0 0 0 0 0 0 0 0 0 0 0 4 21 3 85 105 64 30 108 82 76 52 16 2 0 0 0 0 1 4 7 52 109 159 184 128 53 86 103 145 127 271 511 298
0 0 0 0 0 0 0 0 0 0 0 0 0 18 80 149 170 135 143 129 84 33 10 4 1 0 0 1 5 20 93 71 206 318 225 46 20 17 35 92 459 730 874 794
0 0 0 0 0 0 0 0 0 0 2 26 53 0 247 110 171 388 215 81 54 37 13 4 0 0 2 1 5 8 45 367 447 214 277 263 127 33 27 64 46 51 116 406
0 0 0 0 0 0 0 2 66 4 130 184 95 24 244 194 148 148 76 57 64 51 16 4 3 1 1 6 8 1 2 30 159 159 236 271 136 77 40 34 30 176 59 171
0 0 0 0 0 0 0 0 383 0 0 48 28 63 347 66 105 95 74 55 76 58 17 11 10 7 11 15 18 9 5 11 17 62 64 111 59 33 36 22 36 26 22 125
0 0 0 0 0 0 26 33 0 91 71 89 89 74 64 57 100 86 111 85 45 29 19 19 11 17 23 28 29 27 19 11 10 16 18 26 44 46 35 33 33 21 31 32
0 0 0 0 0 0 0 0 40 256 78 21 14 37 330 80 82 77 79 93 47 36 27 13 8 22 37 49 45 38 31 21 15 15 18 23 35 23 41 34 27 33 40 48
0 0 0 0 0 17 5 21 6 0 38 171 62 108 71 95 129 179 142 52 48 35 28 17 15 27 42 57 60 52 35 21 19 18 31 33 31 27 34 38 32 28 32 31
0 0 0 0 0 0 0 0 0 17 58 321 180 111 285 163 161 169 44 62 53 44 19 26 25 37 48 58 60 52 23 13 12 28 30 29 23 16 22 40 32 34 33 26
0 0 0 0 0 0 0 0 9 20 27 42 349 178 99 113 147 85 65 70 61 36 28 25 24 39 57 59 52 33 10 12 18 20 21 27 19 17 15 16 20 25 21 14
0 0 0 92 1 0 0 3 0 16 49 75 395 90 104 103 117 72 63 58 45 49 35 26 30 43 52 49 45 8 13 15 22 31 24 20 27 33 30 15 7 4 4 9
0 0 0 0 0 0 0 0 0 12 35 77 92 116 89 110 72 50 48 39 44 37 10 17 43 58 60 56 12 11 18 28 30 33 23 28 33 20 10 6 6 7 3 6
1 0 0 0 0 0 0 0 0 1 19 62 73 118 69 61 43 38 38 59 35 30 21 26 46 54 61 31 7 13 22 33 25 15 21 24 22 11 7 19 7 9 4 12
12 11 4 1 0 0 1 1 19 31 45 86 94 85 82 65 71 50 44 39 49 38 29 48 54 68 58 13 7 25 27 24 16 13 15 10 15 14 20 8 6 6 4 3
10 23 22 7 2 2 16 44 3 0 15 35 50 97 66 68 75 24 13 34 33 36 49 64 55 37 28 2 10 26 21 21 16 13 11 14 15 12 8 7 6 5 5 4
0 2 29 33 17 0 14 59 21 71 72 59 48 78 76 43 7 36 35 17 44 67 61 72 52 20 2 4 12 17 16 20 17 16 15 16 9 7 6 5 6 7 4 3
0 5 51 22 22 175 98 103 11 6 1 90 70 85 68 18 16 42 25 53 66 59 60 42 26 8 5 9 9 17 20 18 18 15 25 13 8 8 5 6 6 10 5 4
92 144 76 38 50 60 188 87 26 65 96 58 14 11 6 9 34 45 48 66 49 28 45 18 12 6 7 5 9 17 18 15 22 7 21 15 10 8 7 6 8 7 4 4
116 132 115 101 112 90 103 52 56 83 28 0 0 0 1 6 22 33 66 50 24 23 29 13 7 8 3 10 6 12 21 23 21 17 11 7 8 9 8 5 5 4 3 3
73 117 184 105 155 128 78 85 3 0 0 0 0 0 16 20 37 60 65 50 28 34 23 8 7 7 6 10 14 11 20 17 12 12 7 5 7 5 7 5 3 4 3 2
90 40 97 39 24 40 68 5 1 0 0 0 1 5 21 56 49 71 61 44 20 28 4 5 7 8 7 9 11 11 20 17 10 3 8 9 10 9 9 4 4 8 2 6
27 24 27 22 23 9 10 18 8 11 3 6 5 11 16 68 66 56 59 32 16 16 8 7 10 10 9 13 12 11 15 12 18 9 16 12 12 6 4 4 6 4 3 5
33 38 11 32 33 46 20 2 8 13 6 14 19 20 38 55 49 55 38 29 5 7 1 7 8 12 10 11 12 7 13 13 9 5 12 12 9 7 6 3 2 1 0 0
CIN
-0 -0 -0 -0 -0 -0 -0 -0 -0 -0 -0 -0 -0 -0 -0 -2 -0 -0 -0 -0 -0 -0 -0 -0 -0 -0 -0 -0 -0 -0 -0 -154 -177 -187 -0 -0 -131 -109 -85 -33 -0 -0 -2 -2
-0 -0 -0 -0 -0 -0 -0 -0 -0 -0 -0 -0 -0 -0 -0 -0 -0 -0 -0 -0 -0 -0 -0 -0 -0 -0 -0 -0 -0 -0 -0 -127 -128 -158 -160 -181 -189 -203 -199 -191 -100 -78 -56 -0
-0 -0 -0 -0 -0 -0 -0 -0 -0 -0 -0 -0 -0 -0 -0 -0 -1 -0 -0 -0 -0 -0 -0 -0 -0 -0 -0 -0 -0 -0 -0 -116 -102 -102 -97 -90 -75 -87 -134 -121 -129 -102 -69 -38
-0 -0 -0 -0 -0 -0 -0 -0 -0 -0 -0 -0 -0 -0 -1 -0 -0 -0 -0 -0 -1 -1 -0 -0 -0 -0 -0 -0 -0 -0 -0 -123 -89 -82 -73 -97 -146 -103 -75 -64 -76 -57 -44 -96
-0 -0 -0 -0 -0 -0 -0 -0 -0 -0 -0 -0 -0 -0 -0 -0 -0 -3 -5 -0 -0 -0 -0 -0 -0 -0 -0 -0 -0 -0 -76 -94 -51 -32 -60 -53 -0 -38 -142 -84 -6 -0 -0 -0
-0 -0 -0 -0 -0 -0 -0 -0 -0 -0 -0 -0 -0 -2 -0 -84 -10 -8 -0 -1 -0 -0 -0 -1 -0 -0 -0 -0 -0 -0 -70 -9 -4 -61 -46 -54 -121 -80 -0 -144 -147 -89 -94 -22
-0 -0 -0 -0 -0 -0 -0 -0 -5 -0 -0 -0 -2 -15 -0 -3 -6 -19 -17 -6 -0 -0 -0 -0 -0 -0 -0 -0 -0 -0 -0 -10 -26 -56 -40 -34 -110 -169 -0 -0 -149 -74 -135 -49
-0 -0 -0 -0 -0 -0 -0 -0 -3 -3 -0 -0 -0 -0 -0 -34 -23 -26 -0 -5 -0 -1 -0 -0 -0 -0 -0 -0 -0 -0 -0 -0 -15 -157 -181 -99 -157 -0 -0 -0 -0 -0 -34 -83
-0 -0 -0 -0 -0 -0 -1 -24 -0 -12 -3 -3 -0 -12 -11 -21 -0 -0 -0 -0 -0 -0 -0 -0 -0 -0 -0 -0 -0 -0 -0 -0 -0 -0 -0 -0 -0 -0 -0 -0 -0 -0 -0 -0
-0 -0 -0 -0 -0 -0 -0 -0 -0 -4 -25 -9 -0 -1 -0 -55 -4 -10 -11 -1 -0 -0 -0 -0 -0 -0 -1 -0 -0 -0 -0 -0 -0 -0 -0 -0 -0 -0 -0 -0 -0 -0 -0 -0
-0 -0 -0 -0 -0 -0 -0 -0 -0 -0 -0 -0 -7 -0 -7 -0 -0 -0 -0 -0 -0 -0 -0 -0 -0 -0 -0 -0 -0 -0 -0 -0 -0 -0 -0 -0 -0 -0 -0 -0 -0 -0 -0 -0
-0 -0 -0 -0 -0 -0 -0 -0 -0 -0 -0 -0 -0 -0 -0 -4 -6 -0 -0 -0 -0 -0 -0 -0 -0 -0 -0 -0 -0 -0 -0 -0 -0 -0 -0 -3 -0 -0 -0 -0 -0 -0 -0 -0
-0 -0 -0 -0 -0 -0 -0 -0 -0 -0 -0 -5 -0 -0 -4 -0 -1 -15 -0 -0 -0 -0 -0 -0 -0 -0 -0 -0 -0 -0 -0 -0 -0 -0 -0 -0 -0 -0 -0 -0 -0 -0 -0 -0
-0 -0 -0 -12 -3 -0 -0 -0 -0 -0 -0 -7 -0 -12 -0 -0 -0 -0 -0 -0 -0 -0 -0 -0 -0 -0 -0 -0 -0 -0 -0 -0 -0 -0 -0 -0 -0 -0 -0 -0 -0 -0 -0 -0
-0 -0 -0 -0 -0 -0 -0 -0 -0 -0 -0 -0 -0 -0 -0 -5 -6 -0 -0 -0 -0 -0 -0 -0 -0 -0 -0 -0 -0 -0 -0 -0 -0 -0 -0 -0 -0 -0 -0 -0 -0 -0 -0 -0
-0 -0 -0 -0 -0 -0 -0 -0 -0 -0 -0 -0 -0 -0 -21 -0 -0 -0 -0 -0 -0 -0 -0 -0 -0 -0 -0 -0 -0 -0 -0 -0 -0 -0 -0 -0 -0 -0 -0 -0 -0 -0 -0 -0
-0 -0 -0 -0 -0 -0 -0 -0 -0 -0 -0 -0 -0 -0 -0 -0 -0 -0 -0 -0 -0 -0 -0 -0 -0 -0 -0 -0 -0 -0 -0 -0 -0 -0 -0 -0 -0 -0 -0 -0 -0 -0 -0 -0
-0 -0 -0 -0 -0 -0 -0 -0 -2 -0 -0 -0 -0 -0 -0 -0 -0 -0 -1 -0 -0 -0 -0 -0 -0 -0 -0 -0 -0 -0 -0 -0 -0 -0 -0 -0 -0 -0 -0 -0 -0 -0 -0 -0
-0 -1 -7 -0 -0 -0 -0 -0 -0 -0 -0 -0 -0 -0 -0 -0 -0 -1 -1 -4 -0 -0 -0 -0 -0 -0 -0 -0 -0 -0 -0 -0 -0 -0 -0 -0 -0 -0 -0 -0 -0 -0 -0 -0
-0 -0 -0 -0 -2 -0 -0 -1 -46 -19 -0 -0 -0 -0 -0 -0 -0 -0 -0 -0 -0 -0 -0 -0 -0 -0 -0 -0 -0 -0 -0 -0 -0 -0 -0 -0 -0 -0 -0 -0 -0 -0 -0 -0
-0 -0 -0 -0 -0 -0 -4 -3 -43 -2 -4 -9 -10 -7 -0 -0 -0 -0 -0 -0 -0 -0 -0 -0 -0 -0 -0 -0 -0 -0 -0 -0 -0 -0 -0 -0 -0 -0 -0 -0 -0 -0 -0 -0
-0 -0 -0 -0 -0 -0 -0 -0 -0 -20 -35 -0 -0 -0 -0 -0 -0 -0 -0 -0 -0 -0 -0 -0 -0 -0 -0 -0 -0 -0 -0 -0 -0 -0 -0 -0 -0 -0 -0 -0 -0 -0 -0 -0
-0 -0 -0 -2 -0 -0 -9 -14 -21 -0 -0 -0 -0 -0 -0 -0 -0 -0 -0 -0 -0 -0 -0 -0 -0 -0 -0 -0 -0 -0 -0 -0 -0 -0 -0 -0 -0 -0 -0 -0 -0 -0 -0 -0
-0 -1 -0 -1 -0 -1 -0 -3 -0 -0 -0 -0 -0 -0 -0 -0 -0 -0 -0 -0 -0 -0 -0 -0 -0 -0 -0 -0 -0 -0 -0 -0 -0 -0 -0 -0 -0 -0 -0 -0 -0 -0 -0 -0
-0 -0 -2 -13 -5 -5 -5 -0 -0 -0 -0 -0 -0 -0 -0 -0 -0 -0 -0 -0 -0 -0 -0 -0 -0 -0 -0 -0 -0 -0 -0 -0 -0 -0 -0 -0 -0 -0 -0 -0 -0 -0 -0 -0
-0 -0 -2 -0 -0 -0 -1 -0 -0 -0 -0 -0 -0 -0 -0 -0 -0 -0 -0 -0 -0 -0 -0 -0 -0 -0 -0 -0 -0 -0 -0 -0 -0 -0 -0 -0 -0 -0 -0 -0 -0 -0 -0 -0
Wind_Speed
2 13 8 10 6 9 9 6 8 2 3 6 13 10 10 12 6 7 4 1 4 5 6 8 9 11 12 12 12 12 13 12 11 10 10 9 9 10 12 11 12 13 13 16
10 3 5 7 4 6 6 8 9 1 4 6 14 12 11 6 6 1 1 2 5 8 8 9 9 10 11 12 13 13 12 12 11 10 10 10 10 11 12 13 14 14 15 13
7 11 3 4 6 7 8 9 8 9 12 15 17 16 16 8 6 4 6 3 4 6 10 11 12 10 11 13 12 13 12 13 12 13 10 9 10 10 11 12 12 13 15 15
4 6 4 1 1 7 12 5 7 10 12 11 5 11 12 16 12 11 6 4 5 7 12 12 12 13 12 12 13 12 12 12 12 13 12 14 13 14 12 12 12 12 15 15
8 2 3 5 5 7 9 6 11 12 12 13 16 8 11 11 13 11 6 5 7 12 13 15 14 14 14 13 12 13 12 12 12 6 8 7 12 13 13 14 15 14 13 14
6 2 3 6 6 6 9 12 14 12 13 11 8 3 10 4 5 14 8 8 9 13 15 15 14 14 14 14 14 14 14 12 12 9 9 11 11 14 13 14 12 14 13 13
7 9 3 5 13 8 12 10 6 7 9 3 6 4 6 5 5 6 5 8 12 14 14 15 15 14 15 15 15 15 15 16 15 16 14 10 10 11 14 14 12 15 13 13
7 10 7 3 5 10 3 7 4 4 8 14 8 8 8 5 3 1 7 11 14 14 16 16 14 15 14 15 14 16 17 17 17 17 17 16 14 10 11 14 12 11 13 15
5 4 6 1 6 7 5 3 8 3 10 8 11 9 11 6 2 6 14 13 13 16 16 16 17 14 14 15 16 16 17 19 18 18 16 17 15 15 13 14 13 11 13 13
4 5 6 7 6 5 8 6 5 5 4 7 11 8 9 5 2 6 14 16 14 16 17 17 16 16 13 15 15 17 18 20 19 20 17 14 16 17 17 14 15 15 17 16
2 5 9 4 11 8 9 12 4 3 5 3 5 2 2 4 9 11 13 14 16 18 17 16 16 16 16 16 18 19 20 20 20 18 16 16 16 17 16 15 16 16 16 16
6 6 9 10 8 6 8 8 4 3 6 7 6 9 7 4 3 11 14 15 17 17 19 17 18 18 18 18 19 20 19 20 17 16 15 17 16 17 18 17 17 16 16 15
3 6 8 14 12 7 7 8 7 7 6 11 3 8 6 11 11 11 14 16 16 17 18 17 18 18 19 19 21 20 19 17 18 19 19 18 17 17 18 18 17 17 17 18
3 9 9 7 14 6 5 9 9 9 9 11 11 13 15 9 11 13 15 16 18 17 19 19 19 19 19 20 20 19 19 18 17 17 17 18 18 17 16 17 18 18 17 18
6 12 13 15 16 13 13 13 13 15 15 14 13 16 14 14 15 13 16 17 17 18 20 20 20 19 20 20 19 19 17 16 16 18 17 18 17 17 17 17 17 19 18 16
9 10 9 14 14 15 18 16 16 16 16 19 13 15 14 15 11 15 17 17 17 19 21 22 22 22 21 20 18 17 17 16 16 16 17 17 17 16 16 11 12 13 3 9
12 9 10 13 16 9 13 16 16 16 17 12 11 9 10 11 13 15 17 15 18 19 20 22 21 20 17 15 15 17 17 16 15 16 16 16 16 15 11 9 9 9 10 9
12 11 10 13 12 15 9 6 4 6 11 11 13 8 9 13 14 16 10 14 17 19 21 20 18 18 17 16 17 16 16 14 15 15 15 14 13 11 9 8 9 10 9 12
12 12 11 12 12 16 14 10 9 5 9 14 10 8 10 15 15 17 17 18 19 20 18 16 15 18 16 16 16 15 14 13 14 14 14 12 11 9 9 11 11 10 10 14
9 12 12 12 14 12 12 9 5 5 9 11 8 9 13 16 14 13 18 17 18 19 16 16 18 16 17 15 14 14 14 13 13 13 12 10 10 9 10 10 10 10 12 15
11 11 14 13 13 15 8 7 3 9 6 6 9 12 14 13 13 16 16 16 18 18 17 17 16 16 14 14 13 13 14 12 12 11 10 9 9 9 10 10 10 11 13 16
9 9 11 14 17 12 6 4 7 8 6 9 11 14 13 14 14 15 15 17 18 18 17 17 16 15 13 13 12 13 12 10 9 9 10 11 10 8 8 11 10 11 13 15
8 9 7 5 3 1 3 4 5 6 11 10 10 12 10 13 13 15 15 17 17 16 15 14 15 14 13 12 12 12 11 10 9 9 10 9 10 11 10 11 12 11 13 12
11 4 8 10 8 6 3 1 7 5 7 9 11 13 13 12 13 15 15 15 15 14 13 14 14 14 13 11 11 11 10 8 8 9 9 8 10 12 12 11 10 11 11 12
5 3 6 11 11 11 14 7 8 6 7 13 14 15 14 12 12 13 14 15 13 13 12 12 12 12 11 10 11 11 10 8 8 8 8 10 10 13 14 15 12 13 16 13
9 11 10 10 11 6 9 7 9 10 11 12 12 14 10 10 10 13 13 12 12 11 12 11 12 12 9 10 10 11 10 10 9 10 8 8 8 10 11 12 14 29 27 26
Wind_Direction
280 264 11 356 339 327 317 292 285 330 36 275 275 296 273 160 221 220 214 145 345 343 347 8 358 345 347 342 335 332 326 330 328 313 317 300 301 304 298 288 261 256 229 262
228 116 358 310 288 283 256 268 257 312 210 268 281 279 277 198 190 324 233 306 339 323 333 337 334 335 340 334 331 328 323 322 319 309 326 302 296 289 290 293 299 304 300 238
329 43 346 251 196 256 228 298 335 316 320 274 250 262 217 133 159 160 206 234 283 323 323 327 327 329 334 327 330 322 321 315 311 309 302 297 291 276 269 259 250 247 252 262
346 89 289 225 159 294 294 73 292 285 280 289 333 292 224 157 182 181 208 251 310 337 319 321 331 335 332 323 324 324 319 315 302 319 313 319 306 291 286 288 285 294 295 290
88 156 283 235 18 310 321 343 292 287 285 293 273 231 239 167 201 123 338 265 333 334 335 328 342 333 325 332 327 333 323 314 306 301 294 297 303 299 311 308 308 297 287 273
55 83 264 1 289 271 311 273 260 242 247 255 222 303 92 82 170 175 185 2 329 338 328 338 336 326 335 326 339 333 326 316 311 292 288 279 281 286 289 289 288 294 291 289
173 174 142 272 277 183 239 271 320 244 205 306 121 268 70 79 87 30 359 311 341 332 331 334 332 336 329 329 333 335 331 317 313 309 298 290 282 285 284 282 279 281 281 276
245 177 181 101 324 334 334 319 91 261 339 322 294 246 96 74 62 285 275 345 330 338 336 326 335 333 320 330 332 334 324 321 321 313 315 311 297 293 286 280 286 283 282 286
227 175 135 141 288 274 114 221 31 272 282 277 255 140 133 164 169 31 350 334 334 339 326 333 335 322 330 331 337 326 332 322 315 310 312 304 301 298 293 288 274 274 271 271
84 276 184 107 253 190 300 54 205 148 289 299 314 350 74 75 179 354 342 315 342 333 333 339 329 325 330 338 331 339 332 318 316 315 315 306 302 295 292 288 277 273 279 272
324 260 143 213 206 246 177 204 199 305 342 262 304 42 251 37 11 343 299 325 342 336 330 329 329 334 336 337 338 336 324 321 322 324 310 308 304 297 289 284 277 269 265 262
71 300 272 242 73 293 296 301 268 269 251 193 246 280 358 14 290 308 315 337 336 335 334 334 336 336 337 339 339 330 330 328 325 311 310 306 302 295 288 281 278 278 274 265
147 227 258 219 191 203 242 231 228 261 272 267 261 268 235 325 334 299 323 331 336 339 325 329 336 333 337 339 334 334 331 328 319 318 312 306 297 291 285 281 277 275 270 266
349 272 257 265 328 337 251 228 265 258 273 255 256 268 295 314 331 337 339 337 334 325 337 337 331 335 339 338 337 336 328 327 322 316 311 303 298 299 296 292 280 270 260 255
242 263 261 258 266 277 273 264 266 248 254 270 278 287 305 6 317 338 335 336 319 347 335 333 330 338 340 336 339 332 327 324 322 317 313 307 313 306 300 292 286 277 249 241
207 267 266 280 278 263 266 264 262 256 268 268 271 274 32 284 339 340 337 323 345 341 336 332 338 338 336 342 336 331 327 321 323 318 311 314 312 309 303 316 316 330 319 246
233 244 258 266 277 276 263 252 256 251 247 271 281 315 312 345 345 343 325 328 341 339 335 338 338 339 341 341 341 334 325 323 323 316 318 318 317 319 334 339 346 4 34 43
248 235 259 267 283 264 256 29 331 308 317 302 289 341 348 340 340 316 23 331 340 343 343 341 344 336 335 355 345 332 327 326 326 322 324 323 334 341 348 5 22 32 42 55
226 253 260 251 251 260 266 211 218 280 319 328 327 350 334 342 322 283 16 349 344 350 347 346 344 331 360 354 345 328 322 335 328 333 331 346 350 353 10 27 33 42 59 63
238 224 251 255 258 255 284 97 18 360 278 31 12 343 337 334 312 344 342 339 347 348 350 353 338 351 357 355 339 329 333 339 337 344 345 354 358 14 36 39 43 54 63 74
199 216 223 237 254 269 70 68 334 265 47 356 347 324 330 324 321 319 332 345 350 348 351 354 348 1 1 356 340 336 331 344 345 350 351 7 15 28 45 55 56 67 75 78
211 201 225 230 248 252 69 207 259 30 325 330 335 332 331 323 320 325 340 348 345 351 358 358 359 354 10 356 343 336 346 348 359 359 12 20 22 38 47 61 64 71 76 80
249 281 308 163 341 57 62 36 3 346 325 337 332 326 325 317 326 328 347 344 346 355 10 3 1 353 5 352 346 337 349 356 17 16 28 31 38 46 49 62 64 67 67 71
200 253 271 294 275 267 297 352 253 244 312 320 315 313 313 309 323 339 342 343 349 8 3 15 0 7 359 351 344 338 360 8 40 39 37 40 56 61 57 57 56 65 62 72
302 12 261 263 263 278 264 314 357 7 307 316 310 310 303 311 335 332 339 342 1 12 11 15 7 17 359 353 351 358 7 25 38 43 52 61 64 67 65 57 55 63 55 60
250 238 254 272 322 338 319 349 341 319 320 314 320 318 312 342 331 339 340 345 13 10 30 12 15 29 2 6 0 13 26 45 42 44 52 61 68 68 69 70 67 56 62 60